Weather reports worldwide

Advertisment
Tholey, Germany (10706): temperature & dewpoint: 09.12.2018 07:00:00 - 15.12.2018 07:00:00 (CET)Tholey, Germany (10706): temperature 5cm & temperature -5cm: 09.12.2018 07:00:00 - 15.12.2018 07:00:00 (CET)Tholey, Germany (10706): temperature -20cm & temperature -100cm: 09.12.2018 07:00:00 - 15.12.2018 07:00:00 (CET)Tholey, Germany (10706): wind speed & gusts: 09.12.2018 07:00:00 - 15.12.2018 07:00:00 (CET)Tholey, Germany (10706): wind direction: 09.12.2018 07:00:00 - 15.12.2018 07:00:00 (CET)Tholey, Germany (10706): reduced air pressure: 09.12.2018 07:00:00 - 15.12.2018 07:00:00 (CET)Tholey, Germany (10706): visibility: 09.12.2018 07:00:00 - 15.12.2018 07:00:00 (CET)Tholey, Germany (10706): sunshine duration: 09.12.2018 07:00:00 - 15.12.2018 07:00:00 (CET)Tholey, Germany (10706): precipitation: 09.12.2018 07:00:00 - 15.12.2018 07:00:00 (CET)
Date & Time tt [°C] td [°C] tt 5cm [°C] tt -5cm [°C] tt -20cm [°C] tt -100cm [°C] ff [km/h] ff [kn] fx [km/h] fx [kn] dd ppp [hPa] vv [km] sd [min] rr [mm]
15.12.2018 07:00:00 -2,3 -7,0 -2,4 -0,3 2,0 8,2 16 9 24 13 ESE 1025,9 16 0 0,0
15.12.2018 06:00:00 -2,2 -6,7 -2,4 -0,3 2,0 8,2 11 6 25 13 E 1026,0 14 0 0,0
15.12.2018 05:00:00 -2,2 -6,9 -2,3 -0,3 2,0 8,2 11 6 19 10 E 1025,8 14 0 0,0
15.12.2018 04:00:00 -2,1 -6,4 -2,4 -0,2 2,0 8,2 8 4 16 9 E 1026,2 14 0 0,0
15.12.2018 03:00:00 -2,0 -6,8 -2,3 -0,2 2,0 8,2 9 5 18 10 E 1026,2 18 0 0,0
15.12.2018 02:00:00 -2,0 -6,7 -2,2 -0,2 2,1 8,3 8 4 25 13 ESE 1025,7 17 0 0,0
15.12.2018 01:00:00 -2,0 -7,2 -2,1 -0,2 2,1 8,3 13 7 23 12 E 1025,3 16 0 0,0
15.12.2018 00:00:00 -2,0 -6,8 -2,1 -0,2 2,1 8,3 14 7 26 14 ESE 1025,0 16 0 0,0
14.12.2018 23:00:00 -1,9 -6,9 -2,0 -0,2 2,1 8,3 15 8 24 13 E 1025,0 14 0 0,0
14.12.2018 22:00:00 -1,8 -6,7 -2,0 -0,2 2,1 8,3 11 6 20 11 E 1025,3 16 0 0,0
14.12.2018 21:00:00 -1,8 -6,1 -2,0 -0,1 2,1 8,3 9 5 16 9 ENE 1025,3 15 0 0,0
14.12.2018 20:00:00 -1,7 -6,3 -1,9 -0,1 2,1 8,3 12 6 21 11 E 1024,8 17 0 0,0
14.12.2018 19:00:00 -1,7 -6,4 -1,8 -0,1 2,1 8,3 13 7 27 15 E 1024,5 17 0 0,0
14.12.2018 18:00:00 -1,6 -6,0 -1,8 -0,1 2,2 8,4 15 8 22 12 ENE 1023,6 16 0 0,0
14.12.2018 17:00:00 -1,5 -6,1 -1,7 0,0 2,2 8,4 16 8 28 15 E 1023,0 16 0 0,0
14.12.2018 16:00:00 -1,4 -5,9 -1,5 0,0 2,2 8,4 14 8 28 15 E 1022,6 16 0 0,0
14.12.2018 15:00:00 -1,4 -6,1 -1,3 0,0 2,2 8,4 16 9 32 17 E 1021,8 16 0 0,0
14.12.2018 14:00:00 -1,4 -6,3 -1,2 0,0 2,2 8,4 19 11 33 18 E 1021,4 17 0 0,0
14.12.2018 13:00:00 -1,2 -6,0 -0,9 0,0 2,2 8,4 20 11 32 17 E 1021,3 19 0 0,0
14.12.2018 12:00:00 -1,2 -6,1 -0,9 -0,1 2,2 8,4 20 11 34 18 ENE 1021,5 19 0 0,0
14.12.2018 11:00:00 -1,3 -6,3 -1,1 -0,1 2,2 8,4 19 11 33 18 E 1021,7 21 0 0,0
14.12.2018 10:00:00 -1,4 -6,1 -1,4 -0,2 2,2 8,4 17 9 35 19 ENE 1021,3 21 0 0,0
14.12.2018 09:00:00 -1,5 -6,1 -1,7 -0,2 2,3 8,5 18 10 33 18 E 1020,6 21 0 0,0
14.12.2018 08:00:00 -1,5 -6,2 -1,7 -0,2 2,3 8,5 22 12 41 22 E 1019,5 21 0 0,0
14.12.2018 07:00:00 -1,5 -6,2 -1,7 -0,1 2,3 8,5 20 11 36 20 E 1019,4 21 0 0,0
14.12.2018 06:00:00 -1,6 -6,3 -1,8 -0,1 2,3 8,5 19 10 36 19 E 1019,1 22 0 0,0
14.12.2018 05:00:00 -1,6 -6,5 -1,8 -0,1 2,4 8,5 24 13 39 21 ENE 1019,0 21 0 0,0
14.12.2018 04:00:00 -1,6 -6,3 -1,8 -0,1 2,4 8,5 23 13 41 22 E 1019,2 21 0 0,0
14.12.2018 03:00:00 -1,4 -6,7 -1,6 0,0 2,4 8,5 27 15 46 25 E 1019,2 25 0 0,0
14.12.2018 02:00:00 -1,3 -6,7 -1,6 0,0 2,4 8,5 25 14 42 23 ENE 1019,0 25 0 0,0
14.12.2018 01:00:00 -1,3 -6,4 -1,5 0,0 2,4 8,5 23 12 37 20 ENE 1018,8 23 0 0,0
14.12.2018 00:00:00 -1,2 -6,2 -1,5 0,0 2,5 8,6 19 11 33 18 ENE 1019,0 24 0 0,0
13.12.2018 23:00:00 -1,1 -6,3 -1,4 0,1 2,5 8,6 22 12 39 21 E 1018,6 24 0 0,0
13.12.2018 22:00:00 -1,2 -6,3 -1,5 0,1 2,5 8,6 19 11 43 23 ENE 1018,5 25 0 0,0
13.12.2018 21:00:00 -1,3 -6,5 -1,6 0,1 2,5 8,6 22 12 40 22 ENE 1018,3 28 0 0,0
13.12.2018 20:00:00 -1,5 -6,1 -1,7 0,2 2,5 8,6 18 10 34 18 ENE 1018,2 25 0 0,0
13.12.2018 19:00:00 -1,4 -6,3 -1,7 0,2 2,6 8,6 25 13 42 23 E 1018,2 25 0 0,0
13.12.2018 18:00:00 -1,3 -5,7 -1,5 0,2 2,6 8,6 22 12 35 19 E 1018,0 19 0 0,0
13.12.2018 17:00:00 -1,3 -5,6 -2,3 0,2 2,6 8,6 20 11 31 17 ENE 1018,0 21 11 0,0
13.12.2018 16:00:00 -0,8 -5,2 -0,4 0,2 2,6 8,6 17 9 38 21 ENE 1017,8 19 33 0,0
13.12.2018 15:00:00 -0,9 -5,2 -0,6 0,2 2,6 8,7 26 14 43 23 ENE 1017,6 22 17 0,0
13.12.2018 14:00:00 -1,0 -5,3 -0,8 0,2 2,7 8,7 29 16 48 26 ENE 1018,0 26 9 0,0
13.12.2018 13:00:00 -1,0 -5,0 -0,7 0,2 2,7 8,7 27 14 46 25 ENE 1018,0 19 9 0,0
13.12.2018 12:00:00 -1,1 -4,5 -0,6 0,1 2,7 8,7 23 12 43 23 ENE 1018,4 20 16 0,0
13.12.2018 11:00:00 -1,3 -4,3 -0,7 0,1 2,8 8,7 23 13 41 22 E 1018,9 24 4 0,0
13.12.2018 10:00:00 -1,5 -4,3 -1,4 0,1 2,8 8,7 23 13 44 24 E 1019,0 24 0 0,0
13.12.2018 09:00:00 -1,8 -4,4 -2,8 0,1 2,8 8,7 21 11 42 23 ENE 1019,2 20 0 0,0
13.12.2018 08:00:00 -1,7 -4,3 -2,8 0,2 2,9 8,7 24 13 39 21 E 1019,0 23 0 0,0
13.12.2018 07:00:00 -1,3 -4,3 -2,5 0,3 2,9 8,7 22 12 40 22 E 1019,0 33 0 0,0
13.12.2018 06:00:00 -1,1 -4,1 -2,3 0,4 3,0 8,7 23 12 41 22 ENE 1019,1 34 0 0,0
13.12.2018 05:00:00 -0,7 -4,2 -1,8 0,4 3,0 8,8 27 15 44 24 E 1019,5 42 0 0,0
13.12.2018 04:00:00 -0,6 -4,1 -1,6 0,5 3,1 8,8 24 13 41 22 E 1020,3 46 0 0,0
13.12.2018 03:00:00 -0,7 -4,0 -1,7 0,6 3,1 8,8 23 13 37 20 E 1020,8 47 0 0,0
13.12.2018 02:00:00 -0,4 -3,5 -1,6 0,7 3,1 8,8 23 12 36 19 E 1021,0 49 0 0,0
13.12.2018 01:00:00 -0,4 -2,9 -1,6 0,7 3,2 8,8 19 10 30 16 ENE 1021,8 37 0 0,0
13.12.2018 00:00:00 -0,1 -2,2 -1,4 0,8 3,2 8,8 17 9 29 15 ENE 1022,2 29 0 0,0
12.12.2018 23:00:00 0,4 -1,9 -0,8 0,8 3,2 8,8 15 8 29 16 ENE 1022,3 29 0 0,0
12.12.2018 22:00:00 0,9 -1,3 0,3 0,8 3,3 8,8 16 9 26 14 ENE 1022,5 24 0 0,0
12.12.2018 21:00:00 0,7 -1,6 0,1 0,8 3,4 8,8 16 8 22 12 ENE 1023,0 23 0 0,0
12.12.2018 20:00:00 0,5 -1,7 -0,2 0,9 3,4 8,8 17 9 22 12 ENE 1023,1 24 0 0,0
12.12.2018 19:00:00 0,5 -1,7 -1,0 0,8 3,5 8,9 12 7 24 13 ENE 1023,4 29 0 0,0
12.12.2018 18:00:00 1,1 -1,6 -0,3 1,4 3,5 8,9 13 7 17 9 ENE 1023,3 29 0 0,0
12.12.2018 17:00:00 1,4 -1,8 0,0 1,8 3,4 8,9 13 7 22 12 ENE 1023,4 51 0 0,0
12.12.2018 16:00:00 2,0 -0,7 1,4 2,3 3,4 8,9 10 6 26 14 ENE 1023,4 28 0 0,0
12.12.2018 15:00:00 2,6 -1,8 2,0 2,6 3,3 8,9 15 8 25 13 ENE 1023,4 60 27 0,0
12.12.2018 14:00:00 2,4 -1,3 1,3 2,0 3,3 8,9 10 5 16 9 ENE 1023,7 32 7 0,0
12.12.2018 13:00:00 2,2 -0,9 1,8 1,9 3,3 8,9 10 5 23 13 ENE 1024,4 22 19 0,0
12.12.2018 12:00:00 2,8 -0,9 3,6 0,8 3,3 8,9 9 5 18 10 ENE 1024,9 18 60 0,0
12.12.2018 11:00:00 1,8 -0,7 2,2 0,7 3,3 8,9 10 6 18 10 ENE 1025,4 12 60 0,0
12.12.2018 10:00:00 -0,3 -1,8 -0,3 0,6 3,4 8,9 9 5 24 13 ENE 1025,7 8 51 0,0
12.12.2018 09:00:00 -0,2 -1,7 -1,3 0,6 3,4 8,9 16 8 21 11 NE 1025,6 14 11 0,0
12.12.2018 08:00:00 -1,4 -2,4 -3,3 0,7 3,5 9,0 8 5 11 6 NE 1025,7 8 0 0,0
12.12.2018 07:00:00 -1,2 -2,1 -3,0 0,7 3,5 9,0 8 5 13 7 ENE 1025,2 9 0 0,0
12.12.2018 06:00:00 -1,1 -1,8 -3,0 0,8 3,6 9,0 10 5 13 7 NE 1025,2 10 0 0,0
12.12.2018 05:00:00 -1,2 -1,5 -3,7 0,8 3,6 9,0 6 3 8 5 NE 1025,5 6 0 0,0
12.12.2018 04:00:00 -2,6 -3,0 -3,5 0,9 3,7 9,0 6 4 12 7 NNE 1025,7 0,1 0 0,0
12.12.2018 03:00:00 -1,8 -2,2 -2,4 0,9 3,7 9,0 3 1 5 3 NE 1025,9 0,1 0 0,0
12.12.2018 02:00:00 -1,1 -1,1 -1,6 0,9 3,8 9,0 0 0 7 4 N 1025,4 1,1 0 0,0
12.12.2018 01:00:00 -1,2 -1,3 -1,1 1,0 3,9 9,0 9 5 10 6 W 1025,6 0,1 0 0,0
12.12.2018 00:00:00 -0,8 -1,0 -1,0 1,0 4,0 9,0 5 3 8 4 W 1025,8 1,4 0 0,0
11.12.2018 23:00:00 -1,2 -1,3 -1,5 1,0 4,1 9,0 7 4 8 5 W 1025,7 0,1 0 0,0
11.12.2018 22:00:00 -0,6 -0,8 -0,9 1,1 4,2 9,0 4 2 8 4 W 1025,7 0,2 0 0,0
11.12.2018 21:00:00 -0,6 -0,8 -0,9 1,1 4,3 9,0 8 5 11 6 W 1025,7 1,8 0 0,0
11.12.2018 20:00:00 -0,4 -0,7 -0,8 1,2 4,4 9,0 5 3 12 6 WSW 1025,8 2,1 0 0,0
11.12.2018 19:00:00 -0,9 -1,0 -1,2 1,3 4,5 9,0 8 5 11 6 WSW 1025,8 0,5 0 0,0
11.12.2018 18:00:00 -0,6 -0,8 -1,4 1,6 4,6 9,1 10 5 16 9 W 1025,5 2,4 0 0,0
11.12.2018 17:00:00 0,2 -0,4 -0,8 2,7 4,6 9,1 11 6 16 9 W 1025,3 5 23 0,0
11.12.2018 16:00:00 1,1 -0,4 0,8 4,2 4,5 9,1 10 5 18 10 W 1025,1 10 59 0,0
11.12.2018 15:00:00 1,6 0,1 2,8 5,1 4,4 9,1 13 7 24 13 W 1025,1 10 56 0,0
11.12.2018 14:00:00 1,1 0,6 2,4 5,1 4,2 9,1 16 8 21 11 W 1025,4 4,8 3 0,0
11.12.2018 13:00:00 0,9 0,5 2,6 5,4 4,0 9,1 15 8 20 11 WSW 1025,7 2,9 46 0,0
11.12.2018 12:00:00 2,6 0,4 4,4 4,7 3,9 9,1 14 7 24 13 W 1025,6 15 60 0,0
11.12.2018 11:00:00 2,7 0,2 4,3 3,2 3,9 9,1 14 8 20 11 WNW 1025,9 19 60 0,0
11.12.2018 10:00:00 0,8 -0,3 1,7 1,0 4,0 9,1 12 6 19 10 W 1026,1 7 56 0,0
11.12.2018 09:00:00 -0,1 -0,4 0,0 0,9 4,0 9,1 12 6 17 9 W 1026,3 3,7 16 0,0
11.12.2018 08:00:00 -0,3 -0,3 -0,8 0,9 4,1 9,1 8 4 21 11 WSW 1026,1 4,2 0 0,0
11.12.2018 07:00:00 -0,3 -0,6 -1,0 1,0 4,2 9,1 14 7 19 10 WSW 1026,0 4,5 0 0,0
11.12.2018 06:00:00 0,1 -0,4 -0,3 1,0 4,2 9,1 14 7 19 10 W 1025,9 8 0 0,0
11.12.2018 05:00:00 0,4 -0,6 -0,3 1,0 4,3 9,1 12 7 24 13 W 1026,0 16 0 0,0
11.12.2018 04:00:00 1,2 -0,6 0,1 1,0 4,4 9,1 16 9 32 17 W 1025,6 35 0 0,0
11.12.2018 03:00:00 1,1 -0,5 0,1 1,0 4,6 9,1 16 8 22 12 W 1025,7 38 0 0,0
11.12.2018 02:00:00 1,6 -0,8 0,3 0,9 4,7 9,1 16 9 29 16 W 1025,7 59 0 0,0
11.12.2018 01:00:00 1,7 -0,4 0,2 1,2 4,8 9,1 14 8 24 13 W 1025,7 44 0 0,0
11.12.2018 00:00:00 1,2 -0,5 -0,3 1,3 5,0 9,1 12 7 23 13 W 1025,8 46 0 0,0
10.12.2018 23:00:00 2,2 -0,7 0,6 1,5 5,1 9,1 13 7 26 14 W 1025,4 70 0 0,0
10.12.2018 22:00:00 2,6 -0,1 0,3 2,0 5,2 9,1 9 5 21 11 WNW 1025,3 70 0 0,0
10.12.2018 21:00:00 2,8 1,0 1,6 2,5 5,3 9,1 6 3 42 23 W 1025,1 19 0 0,2
10.12.2018 20:00:00 3,8 0,2 2,5 2,7 5,4 9,2 26 14 43 23 W 1024,1 43 0 0,0
10.12.2018 19:00:00 3,9 0,3 2,8 2,7 5,5 9,2 24 13 48 26 WNW 1023,8 70 0 0,0
10.12.2018 18:00:00 4,1 0,0 2,9 3,0 5,6 9,2 26 14 48 26 W 1023,5 70 0 0,0
10.12.2018 17:00:00 4,7 -0,1 3,9 3,6 5,6 9,2 30 16 46 25 W 1023,0 70 3 0,0
10.12.2018 16:00:00 4,8 0,7 3,8 4,4 5,6 9,2 24 13 40 22 W 1023,1 70 16 0,0
10.12.2018 15:00:00 5,3 0,2 4,9 4,9 5,5 9,2 26 14 42 23 W 1022,9 70 23 0,0
10.12.2018 14:00:00 4,9 0,7 4,0 4,8 5,5 9,2 19 10 37 20 W 1023,4 70 4 0,0
10.12.2018 13:00:00 4,3 1,4 3,5 4,6 5,4 9,2 16 9 29 16 W 1023,9 13 0 0,1
10.12.2018 12:00:00 4,2 1,5 3,9 4,4 5,4 9,2 16 9 36 19 W 1024,5 23 0 0,0
10.12.2018 11:00:00 4,3 0,7 4,3 4,0 5,5 9,2 22 12 35 19 W 1024,2 58 18 0,0
10.12.2018 10:00:00 3,5 1,6 3,1 3,3 5,6 9,2 18 10 36 19 W 1023,9 18 1 0,0
10.12.2018 09:00:00 2,9 1,6 2,1 2,8 5,7 9,2 14 8 29 16 W 1023,4 20 0 0,0
10.12.2018 08:00:00 2,5 1,4 1,5 2,5 5,8 9,2 13 7 22 12 WSW 1023,2 19 0 0,0
10.12.2018 07:00:00 2,7 1,2 1,2 2,9 5,9 9,2 14 8 28 15 W 1022,6 24 0 0,0
10.12.2018 06:00:00 3,3 0,8 1,7 3,4 6,0 9,2 16 9 31 17 W 1022,0 38 0 0,0
10.12.2018 05:00:00 3,4 1,7 2,8 3,8 6,1 9,2 19 11 35 19 W 1021,2 11 0 0,0
10.12.2018 04:00:00 3,7 1,5 3,0 4,0 6,2 9,2 23 13 43 23 W 1020,5 45 0 0,0
10.12.2018 03:00:00 3,9 1,9 3,6 4,3 6,2 9,2 23 12 39 21 W 1020,2 50 0 0,0
10.12.2018 02:00:00 3,9 1,9 3,7 4,5 6,3 9,2 18 10 31 17 W 1019,2 57 0 0,0
10.12.2018 01:00:00 4,4 2,1 4,0 4,8 6,3 9,2 19 10 33 18 W 1018,6 58 0 0,0
10.12.2018 00:00:00 4,5 2,7 4,0 4,9 6,4 9,2 17 9 32 17 W 1018,0 20 0 0,0
09.12.2018 23:00:00 4,9 2,6 4,6 5,0 6,4 9,2 17 9 30 16 W 1017,0 70 0 0,0
09.12.2018 22:00:00 5,2 3,0 4,9 5,1 6,5 9,2 14 7 37 20 W 1015,7 70 0 0,0
09.12.2018 21:00:00 5,6 2,6 5,1 5,1 6,5 9,2 23 12 38 20 W 1014,5 70 0 0,0
09.12.2018 20:00:00 5,6 3,2 5,2 5,1 6,6 9,2 20 11 37 20 W 1013,1 70 0 0,0
09.12.2018 19:00:00 6,1 3,0 4,8 5,2 6,6 9,2 22 12 47 25 W 1011,1 70 0 0,0
09.12.2018 18:00:00 6,3 3,8 5,3 5,9 6,6 9,2 23 12 47 25 WNW 1009,8 70 0 0,2
09.12.2018 17:00:00 6,2 5,3 5,7 6,1 6,6 9,2 22 12 40 22 W 1007,9 14 0 0,7
09.12.2018 16:00:00 6,3 5,2 5,8 6,2 6,6 9,2 29 16 44 24 W 1006,5 10 0 1,8
09.12.2018 15:00:00 5,9 5,5 5,7 6,1 6,6 9,2 23 12 48 26 W 1005,4 4,4 0 3,6
09.12.2018 14:00:00 5,8 5,3 5,7 6,1 6,6 9,2 30 16 51 28 W 1004,7 4,0 0 0,1
09.12.2018 13:00:00 5,7 4,5 5,5 5,9 6,6 9,2 35 19 63 34 W 1005,0 61 0 0,2
09.12.2018 12:00:00 5,9 5,0 5,5 5,9 6,6 9,2 35 19 57 31 W 1005,0 8 0 0,1
09.12.2018 11:00:00 5,5 4,5 5,2 5,7 6,6 9,2 34 18 62 34 W 1005,0 24 0 0,3
09.12.2018 10:00:00 5,4 4,8 5,1 5,5 6,6 9,2 37 20 59 32 W 1004,7 7 0 0,8
09.12.2018 09:00:00 5,1 4,2 4,7 5,4 6,7 9,2 28 15 69 37 W 1004,6 7 0 1,0
09.12.2018 08:00:00 5,1 4,6 4,9 5,2 6,8 9,2 31 17 57 31 W 1003,7 8 0 0,6
09.12.2018 07:00:00 4,9 2,5 4,0 5,4 6,9 9,2 36 19 71 39 W 1003,1 24 0 2,9

tt = temperature
td = dewpoint
tt 5cm = temperature 5cm
tt -5cm = temperature -5cm
tt -20cm = temperature -20cm
tt -100cm = temperature -100cm
ff = wind speed
fx = gusts
dd = wind direction
ppp = reduced air pressure
vv = visibility
sd = sunshine duration
rr = precipitation

Next stations